                ,  0.300,  0.400,  0.500,  0.600,  0.700,  0.800,  0.900,  1.000,  1.100,  1.200,  1.300,  1.400,  1.500,  1.600,  1.700,  1.800,  1.900,  2.000,  2.100,  2.200,  2.300,  2.400,  2.500,  2.600,  2.700,  2.800,  2.900,  3.000,  3.100,  3.200,  3.300,  3.400,  3.500,  3.600,  3.700,  3.800,  3.900,  4.000,  4.100,  4.200,  4.300,  4.400,  4.500,  4.600,  4.700,  4.800,  4.900,  5.000,  5.100,  5.200,  5.300,  5.400,  5.500,  5.600,  5.700,  5.800,  5.900,  6.000
2000/07/12 00:00,   -0.3,  999.0,   -0.2,  999.0,  999.0,   -0.1,   -0.2,  999.0,   -0.1,   -0.1,   -0.1,   -0.1,   -0.0,   -0.2,    0.0,    0.1,    0.1,    0.1,  999.0,   -0.2,  999.0,  999.0,  999.0,    5.4,  999.0,  999.0,  999.0,  999.0,  999.0,  999.0,  999.0,  999.0,  999.0,  999.0,    5.5,  999.0,    5.6,  999.0,  999.0,  999.0,  999.0,  999.0,  999.0,  999.0,  999.0,  999.0,  999.0,  999.0,  999.0,  999.0,  999.0,    7.0,    5.5,  999.0,  999.0,  999.0,  999.0,  999.0
2000/07/12 00:10,    0.3,   -0.0,    0.2,   -0.5,   -0.1,   -0.0,   -0.2,   -0.2,   -0.1,   -0.1,   -0.0,    0.0,    0.0,   -0.2,   -0.1,   -0.1,   -0.2,   -0.0,   -0.3,    0.0,   -0.1,  999.0,    5.4,    2.7,   -2.7,   -0.0,    2.7,   -0.2,    0.1,    0.1,    5.6,   -2.7,  999.0,   -0.1,    0.2,   -2.5,    0.1,   -2.7,    2.5,  999.0,   -4.5,    0.0,    0.1,    2.6,   -0.0,    0.0,    2.8,  999.0,    3.8,   -2.7,    5.6,  999.0,   -0.1,   -2.7,  999.0,  999.0,    5.5,   -5.5
2000/07/12 00:20,   -0.8,   -0.2,   -0.0,   -0.1,    0.0,    0.2,   -0.1,   -0.0,   -0.0,   -0.0,   -0.0,    0.0,   -0.0,    0.0,   -0.0,   -0.1,   -0.0,   -0.1,   -0.2,   -0.0,  999.0,  999.0,  999.0,    5.5,    5.4,  999.0,  999.0,  999.0,  999.0,    5.6,  999.0,   -5.5,  999.0,    0.0,   -5.5,    5.3,   -2.7,  999.0,  999.0,   -0.0,  999.0,  999.0,  999.0,    5.4,  999.0,   -5.6,  999.0,  999.0,  999.0,  999.0,   -5.6,   -5.6,    5.4,    5.5,   -5.5,    5.6,    5.4,  999.0
2000/07/12 00:30,   -0.4,    0.0,   -0.4,   -0.1,   -0.1,   -0.1,    0.0,    0.1,    0.0,    0.0,   -0.0,    0.0,   -0.0,    0.3,   -0.0,   -0.1,   -0.2,    0.0,  999.0,    0.1,  999.0,  999.0,  999.0,  999.0,    5.5,    1.5,  999.0,   -5.7,  999.0,  999.0,  999.0,  999.0,  999.0,  999.0,   -0.1,  999.0,  999.0,  999.0,    5.5,   -5.4,  999.0,   -5.4,  999.0,  999.0,  999.0,    5.4,   -5.4,  999.0,    5.5,   -5.6,  999.0,   -5.5,    5.5,  999.0,  999.0,  999.0,  999.0,  999.0
2000/07/12 00:40,  999.0,   -0.0,   -0.1,    0.1,   -0.0,    0.0,   -0.0,   -0.0,    0.0,    0.0,    0.0,    0.0,    0.0,   -0.1,   -0.1,   -0.1,   -0.1,   -0.0,  999.0,  999.0,  999.0,  999.0,  999.0,    2.2,  999.0,  999.0,    5.4,  999.0,  999.0,  999.0,   -5.5,  999.0,   -5.5,  999.0,  999.0,    5.5,  999.0,  999.0,  999.0,    5.6,  999.0,    5.5,    5.1,  999.0,  999.0,  999.0,   -0.0,    5.5,  999.0,  999.0,    5.5,    5.4,  999.0,  999.0,    5.5,  999.0,    5.3,  999.0
2000/07/12 00:50,   -0.1,    0.1,   -0.1,   -0.2,   -0.1,   -0.0,    0.0,   -0.1,    0.0,    0.0,    0.0,    0.0,    0.0,  999.0,   -0.0,   -0.0,  999.0,   -0.1,  999.0,  999.0,  999.0,  999.0,  999.0,  999.0,    5.6,  999.0,  999.0,  999.0,  999.0,    5.7,   -5.5,    5.5,  999.0,    5.5,   -0.1,    0.2,  999.0,   -0.0,    5.5,  999.0,  999.0,   -0.2,  999.0,   -5.5,  999.0,   -5.5,  999.0,   -5.5,  999.0,    5.3,    5.5,   -5.5,   -5.4,  999.0,    5.5,  999.0,  999.0,  999.0
2000/07/12 01:00,   -0.1,   -0.0,    0.1,   -0.1,    0.1,    0.0,    0.0,   -0.0,    0.0,   -0.1,   -0.0,    0.0,   -0.0,    0.0,    0.0,    0.0,  999.0,  999.0,    0.1,  999.0,  999.0,  999.0,  999.0,    5.6,  999.0,  999.0,  999.0,  999.0,   -5.5,    5.5,  999.0,   -5.5,  999.0,   -0.1,    5.4,   -5.5,   -5.5,    5.4,  999.0,    5.5,  999.0,  999.0,   -5.6,  999.0,   -5.6,  999.0,  999.0,   -2.2,  999.0,  999.0,   -5.6,  999.0,    5.5,    5.4,    5.5,   -5.4,  999.0,    5.5
2000/07/12 01:10,   -0.1,   -0.0,   -0.1,   -0.1,   -0.2,   -0.1,   -0.2,   -0.1,   -0.1,   -0.1,   -0.1,    0.0,   -0.0,   -0.1,   -0.1,   -0.1,  999.0,   -0.0,  999.0,  999.0,  999.0,  999.0,  999.0,  999.0,  999.0,  999.0,  999.0,   -5.4,    5.6,    5.8,    5.6,   -0.0,  999.0,  999.0,    5.4,  999.0,  999.0,  999.0,   -5.4,   -5.5,    5.4,  999.0,    0.0,  999.0,  999.0,    5.4,  999.0,    8.7,   -5.4,  999.0,   -5.5,    5.6,    5.4,    5.6,    5.6,  999.0,  999.0,    5.6
2000/07/12 01:20,   -0.1,   -0.1,  999.0,   -0.1,   -0.2,   -0.1,   -0.1,   -0.1,   -0.1,   -0.1,   -0.1,    0.0,    0.0,    0.0,    0.0,   -0.1,  999.0,  999.0,   -2.7,  999.0,   -5.4,  999.0,  999.0,   -5.7,    5.5,   -5.5,  999.0,   -0.1,   -0.1,  999.0,  999.0,   -0.1,  999.0,  999.0,    5.6,    5.3,    5.7,    5.5,  999.0,  999.0,  999.0,    5.4,    5.4,    5.6,    5.6,    5.5,    5.5,  999.0,    5.4,   -5.6,  999.0,  999.0,    5.5,    5.6,   -5.6,    0.0,   -0.0,  999.0
2000/07/12 01:30,   -0.1,    0.0,   -0.0,   -0.1,   -0.0,   -0.0,   -0.0,   -0.0,   -0.0,   -0.1,   -0.1,    0.1,    0.0,    0.1,    0.0,    0.0,   -0.3,   -0.2,   -0.2,  999.0,   -2.7,    5.4,   -0.0,  999.0,  999.0,    0.2,    5.4,    5.4,    5.5,  999.0,    0.1,   -5.4,    0.0,    0.0,  999.0,  999.0,    5.4,  999.0,  999.0,  999.0,   -2.8,  999.0,    1.9,  999.0,    0.1,    5.5,   -5.6,   -5.5,  999.0,  999.0,  999.0,    5.5,   -0.1,  999.0,   -5.5,  999.0,    5.6,    5.7
2000/07/12 01:40,   -0.1,   -1.0,   -0.1,   -0.1,   -0.1,   -0.1,   -0.0,   -0.1,   -0.0,   -0.1,   -0.1,    0.1,    0.0,   -0.0,    0.0,   -1.9,  999.0,   -0.0,   -0.1,  999.0,  999.0,  999.0,    5.4,    5.4,    5.5,  999.0,  999.0,    5.6,  999.0,    5.4,    5.5,  999.0,    5.5,  999.0,   -0.0,  999.0,  999.0,    5.5,    5.6,    5.5,   -5.5,    5.5,    5.3,    5.6,   -5.5,    5.4,  999.0,    5.5,  999.0,    5.5,  999.0,   -5.5,  999.0,  999.0,    0.1,    5.5,    5.5,    5.4
2000/07/12 01:50,    0.3,    0.3,   -0.1,   -0.1,   -0.1,    0.0,   -0.1,   -0.1,   -0.3,   -0.4,    0.0,    0.1,    0.0,  999.0,   -0.1,   -0.1,    5.6,   -0.1,   -0.2,  999.0,    5.5,   -5.4,    5.5,  999.0,   -5.5,  999.0,   -6.3,   -0.2,    0.1,    5.6,  999.0,    5.4,  999.0,  999.0,  999.0,  999.0,  999.0,    0.0,    5.5,   -5.5,  999.0,   -5.5,  999.0,    5.5,    0.1,  999.0,  999.0,   -5.5,  999.0,    5.5,   -1.5,  999.0,    0.1,    0.0,    5.6,    5.7,   -5.4,   -5.5
2000/07/12 02:00,    0.1,    0.3,   -0.1,   -0.1,   -0.0,   -0.0,    0.0,   -0.0,  999.0,   -0.1,    0.0,    0.1,   -0.0,  999.0,   -0.1,   -1.0,    0.0,   -0.1,  999.0,   -2.7,  999.0,  999.0,  999.0,    5.6,    5.6,   -5.5,  999.0,  999.0,  999.0,   -5.5,  999.0,    5.5,  999.0,    5.9,  999.0,   -5.5,  999.0,    5.6,  999.0,    5.6,    5.4,  999.0,  999.0,    5.6,    5.6,  999.0,    5.4,    5.5,    5.4,    5.4,    5.5,    5.5,  999.0,    5.4,  999.0,    5.4,   -0.0,  999.0
2000/07/12 02:10,   -0.1,   -0.1,   -0.1,   -0.1,   -0.0,   -0.1,   -0.1,   -0.2,  999.0,  999.0,    0.1,    0.1,    0.0,   -0.1,   -0.0,   -0.0,    5.5,   -0.0,    5.3,   -5.6,   -5.4,    5.4,   -5.4,   -0.1,    5.8,   -5.5,   -0.0,    5.5,    5.6,  999.0,  999.0,  999.0,  999.0,    5.5,   -6.5,    0.1,  999.0,   -5.5,  999.0,   -5.4,  999.0,   -0.1,  999.0,    5.5,  999.0,    5.5,  999.0,    5.5,    5.8,   -5.6,    5.7,   -0.0,    5.3,    5.5,  999.0,    5.5,  999.0,   -5.5
2000/07/12 02:20,   -0.1,   -0.1,    0.1,   -0.0,   -0.0,   -0.0,   -0.0,   -0.1,  999.0,  999.0,    0.0,    0.1,    0.0,   -0.0,    0.0,   -0.0,    0.0,   -0.1,   -5.6,   -5.6,   -5.3,  999.0,  999.0,   -0.1,  999.0,    5.6,  999.0,   -7.1,    5.6,    5.6,    6.1,   -5.5,    0.1,    5.4,   -5.6,  999.0,    0.1,  999.0,   -5.3,   -5.5,  999.0,  999.0,   -5.4,    5.5,    5.6,    0.0,   -5.5,   -5.5,    5.5,    5.3,  999.0,  999.0,  999.0,  999.0,  999.0,    0.1,  999.0,   -0.1
2000/07/12 02:30,   -0.1,   -0.1,   -0.0,   -0.1,   -0.1,    0.1,    0.0,    0.0,  999.0,   -0.0,    0.1,    0.0,    0.0,   -0.0,   -0.0,   -0.0,   -1.9,   -0.1,  999.0,  999.0,  999.0,  999.0,  999.0,    5.4,  999.0,  999.0,    5.5,    5.2,   -5.4,  999.0,    5.5,  999.0,    5.5,    5.6,  999.0,    5.3,  999.0,   -0.1,    0.0,    5.4,    1.8,  999.0,    5.6,   -5.4,  999.0,  999.0,    5.4,    5.5,    5.6,  999.0,  999.0,  999.0,    5.7,  999.0,    5.5,  999.0,    8.0,  999.0
2000/07/12 02:40,   -0.1,   -0.1,   -0.1,   -0.1,   -0.0,   -0.0,   -0.0,   -0.2,   -0.0,    0.1,    0.0,    0.0,   -0.1,   -0.2,   -0.1,   -0.1,    1.3,    7.6,  999.0,   -5.4,   -0.1,   -5.4,    5.5,    0.0,  999.0,   -5.5,    5.4,  999.0,   -5.5,   -3.1,  999.0,  999.0,   -5.5,   -1.9,    5.5,   -0.1,  999.0,   -5.7,   -0.6,   -5.5,  999.0,    5.4,    5.5,   -0.1,  999.0,   -5.4,    5.5,    1.1,  999.0,    5.6,  999.0,   -5.5,  999.0,  999.0,    5.6,    0.0,  999.0,   -5.5
2000/07/12 02:50,   -0.0,  999.0,   -0.0,   -0.1,   -0.0,   -0.0,    0.1,    0.0,    0.2,   -0.6,    0.1,    0.1,   -0.1,   -0.2,   -0.0,   -0.1,   -0.1,   -0.1,   -5.3,  999.0,  999.0,  999.0,  999.0,  999.0,  999.0,  999.0,  999.0,    1.9,    5.5,   -0.1,   -5.4,    5.5,   -5.6,  999.0,    5.5,    5.6,  999.0,    5.4,    5.4,   -0.1,  999.0,    5.6,    5.5,  999.0,  999.0,  999.0,    5.6,  999.0,  999.0,  999.0,  999.0,   -0.1,    5.4,  999.0,    5.5,    5.5,    0.0,    5.4
2000/07/12 03:00,    0.4,   -0.1,   -0.1,   -0.0,   -0.0,   -0.0,    0.1,    0.0,  999.0,   -0.0,    0.2,    0.0,    0.0,    0.0,    0.0,   -0.1,   -0.0,   -0.0,    5.5,   -5.5,  999.0,  999.0,    0.0,    5.5,  999.0,    5.6,  999.0,   -1.9,  999.0,    5.5,  999.0,  999.0,  999.0,    0.2,   -5.6,   -5.5,  999.0,    5.6,    5.5,    5.2,   -5.4,  999.0,   -5.6,  999.0,    5.5,    5.6,  999.0,  999.0,    5.6,  999.0,  999.0,    5.5,   -0.2,  999.0,    5.7,    0.0,   -5.8,   -0.0
2000/07/12 03:10,   -0.1,   -0.0,   -0.1,   -0.1,   -0.0,   -0.1,   -0.2,   -0.1,    0.1,   -0.1,    0.0,   -0.0,   -0.1,   -0.1,    0.1,   -0.1,  999.0,   -0.0,  999.0,  999.0,  999.0,  999.0,  999.0,    5.6,    5.5,    5.5,    5.4,  999.0,    5.4,  999.0,    5.2,    5.5,    5.5,  999.0,    5.5,    5.5,    5.6,  999.0,    5.5,  999.0,    5.5,    5.5,    5.5,  999.0,  999.0,  999.0,    5.6,    5.3,    5.3,  999.0,    5.4,  999.0,  999.0,  999.0,    5.4,  999.0,  999.0,    5.5
2000/07/12 03:20,   -0.1,   -0.1,    0.0,   -0.1,   -0.0,   -0.1,   -0.0,   -0.1,   -0.0,   -0.1,   -0.1,    0.0,   -0.1,   -0.1,    0.1,    0.0,  999.0,   -0.1,   -0.1,   -5.5,   -5.5,  999.0,    5.4,    5.6,    5.5,  999.0,    5.6,    5.5,    5.5,    5.5,    5.5,  999.0,    5.6,  999.0,   -5.4,   -5.5,  999.0,    5.5,  999.0,    5.5,    5.6,    5.5,  999.0,  999.0,    3.5,    5.5,    5.3,   -0.1,    5.7,    0.1,  999.0,    5.3,  999.0,  999.0,  999.0,    5.4,  999.0,    5.6
2000/07/12 03:30,   -0.1,   -0.1,   -0.1,   -0.1,   -0.0,   -0.0,    0.0,    0.3,  999.0,  999.0,    0.0,   -0.0,   -0.1,   -0.2,    0.1,   -0.2,    5.4,    0.0,  999.0,    5.5,  999.0,  999.0,   -5.4,   -5.4,    5.5,    5.4,    5.4,    5.4,  999.0,  999.0,  999.0,  999.0,    5.4,  999.0,    0.1,    5.6,    0.1,  999.0,  999.0,   -5.4,    1.8,  999.0,    5.4,  999.0,  999.0,   -5.6,  999.0,    5.5,  999.0,    2.9,   -5.5,   -5.4,    0.1,  999.0,  999.0,    5.6,    0.2,  999.0
2000/07/12 03:40,   -0.1,  999.0,   -0.1,   -0.1,   -0.1,   -0.0,    0.6,   -0.1,    0.1,    0.0,   -0.0,   -0.1,   -0.1,   -0.3,   -0.1,   -0.1,    5.6,   -0.2,   -5.7,   -5.6,  999.0,  999.0,    5.3,  999.0,    5.5,    5.6,    0.1,  999.0,    5.4,   -5.4,  999.0,  999.0,  999.0,   -5.4,    5.4,  999.0,  999.0,    5.5,  999.0,   -5.6,    5.5,  999.0,  999.0,  999.0,  999.0,  999.0,    5.4,  999.0,  999.0,  999.0,    5.5,  999.0,    5.6,  999.0,  999.0,  999.0,    5.4,  999.0
2000/07/12 03:50,  999.0,   -0.1,   -0.1,   -0.0,   -0.0,   -0.1,    0.0,   -0.1,    0.0,  999.0,    0.1,    0.1,    0.1,  999.0,  999.0,   -0.1,  999.0,  999.0,   -0.0,  999.0,  999.0,    5.5,  999.0,  999.0,    5.5,  999.0,    5.6,  999.0,  999.0,  999.0,  999.0,  999.0,  999.0,  999.0,  999.0,    5.5,  999.0,    5.4,    5.3,  999.0,  999.0,  999.0,    5.5,  999.0,    5.3,  999.0,  999.0,    5.7,  999.0,  999.0,  999.0,  999.0,  999.0,  999.0,    5.4,  999.0,  999.0,  999.0
2000/07/12 04:00,   -0.1,   -0.1,   -0.2,   -0.1,   -0.1,   -0.1,   -0.1,   -0.2,  999.0,  999.0,    0.0,   -0.1,   -0.1,   -0.1,    0.0,   -0.0,   -0.3,  999.0,  999.0,  999.0,    5.5,    5.5,    5.7,  999.0,  999.0,    5.7,    5.5,  999.0,    5.5,    5.6,  999.0,  999.0,  999.0,    5.7,  999.0,    5.4,    5.5,    5.5,  999.0,  999.0,    5.8,    4.5,  999.0,  999.0,  999.0,    5.5,    5.5,    5.4,  999.0,  999.0,    5.6,    5.4,  999.0,  999.0,    5.5,  999.0,  999.0,    5.5
2000/07/12 04:10,   -0.0,   -0.1,   -0.1,   -0.1,   -0.0,   -0.1,    0.0,   -0.1,  999.0,    0.1,    0.0,   -0.0,   -0.1,  999.0,    0.1,    0.0,  999.0,   -0.1,   -5.6,   -5.3,    5.5,  999.0,    5.5,  999.0,    5.5,    5.5,   -5.4,  999.0,  999.0,    6.0,   -0.1,  999.0,    2.3,    5.5,    5.7,    5.4,    5.6,   -5.4,    5.6,    2.9,  999.0,  999.0,  999.0,  999.0,  999.0,  999.0,    5.7,   -5.5,  999.0,  999.0,  999.0,  999.0,    5.4,  999.0,  999.0,  999.0,  999.0,    5.6
2000/07/12 04:20,   -0.1,   -0.1,   -0.1,   -0.1,   -0.0,   -0.0,    0.3,   -0.1,   -0.1,   -0.5,   -0.0,   -0.1,   -0.1,  999.0,    2.7,   -0.1,    0.0,    0.0,  999.0,    5.4,    5.6,  999.0,  999.0,    5.5,    5.4,  999.0,  999.0,  999.0,  999.0,  999.0,  999.0,  999.0,  999.0,  999.0,    5.6,  999.0,  999.0,  999.0,  999.0,  999.0,  999.0,  999.0,  999.0,  999.0,  999.0,    5.7,  999.0,    5.4,  999.0,  999.0,  999.0,    5.5,    5.4,  999.0,  999.0,  999.0,  999.0,  999.0
2000/07/12 04:30,   -0.1,   -0.1,   -0.1,   -0.1,   -0.1,   -0.1,    0.0,   -0.1,    0.7,   -0.1,   -0.1,   -0.0,    0.0,  999.0,    5.6,    0.2,   -0.0,    0.0,  999.0,  999.0,  999.0,  999.0,  999.0,  999.0,  999.0,  999.0,  999.0,    5.4,    5.6,  999.0,    5.6,    5.5,  999.0,  999.0,    5.5,  999.0,  999.0,    5.5,  999.0,  999.0,    5.5,    5.6,  999.0,  999.0,  999.0,    5.6,    5.6,    5.6,  999.0,    5.5,    5.5,  999.0,  999.0,  999.0,  999.0,    5.5,  999.0,    5.4
2000/07/12 04:40,  999.0,   -0.1,   -0.2,   -0.1,   -0.0,   -0.0,   -0.1,   -0.0,    0.0,  999.0,   -0.1,   -0.1,   -0.0,  999.0,    0.0,   -0.0,    0.0,    0.1,   -0.1,  999.0,  999.0,    5.5,   -5.8,   -5.4,    5.6,   -5.4,   -5.6,   -5.5,   -5.5,  999.0,  999.0,  999.0,   -5.5,  999.0,    5.4,    5.6,   -5.4,   -5.7,    5.6,    5.6,   -5.5,   -5.4,   -5.3,  999.0,    5.7,    0.1,    5.5,  999.0,   -5.4,  999.0,   -5.5,  999.0,  999.0,  999.0,    5.4,  999.0,  999.0,    5.5
2000/07/12 04:50,   -0.1,   -0.4,   -0.2,   -0.1,   -0.1,   -0.1,   -0.3,   -0.1,   -0.1,    0.1,    0.0,   -0.1,   -0.3,  999.0,    0.2,    0.0,   -5.5,    0.1,  999.0,   -5.6,   -5.9,  999.0,    5.4,  999.0,    5.5,  999.0,  999.0,  999.0,  999.0,    1.9,    5.4,  999.0,    5.4,    5.4,   -5.6,  999.0,    2.8,    5.5,  999.0,    0.0,  999.0,   -0.1,  999.0,  999.0,   -0.1,    5.5,    5.4,   -5.5,  999.0,    5.4,  999.0,  999.0,    5.4,   -5.4,  999.0,  999.0,  999.0,    5.5
2000/07/12 05:00,  999.0,   -0.1,   -0.1,   -0.1,   -0.0,   -0.0,   -0.0,   -0.1,    0.0,   -0.0,   -0.1,   -0.1,   -0.0,  999.0,   -0.0,   -0.0,    0.0,  999.0,    5.6,  999.0,  999.0,  999.0,  999.0,   -5.7,    5.5,  999.0,   -5.6,  999.0,  999.0,   -5.5,  999.0,   -5.4,  999.0,  999.0,  999.0,   -5.3,    5.4,   -5.4,   -5.5,    5.5,   -5.4,    5.4,  999.0,  999.0,   -5.5,  999.0,   -5.4,    5.4,   -0.0,  999.0,    5.5,  999.0,  999.0,  999.0,    5.6,  999.0,    5.3,  999.0
2000/07/12 05:10,    0.2,    0.2,   -0.1,   -0.1,   -0.1,   -0.0,   -0.1,   -0.2,    0.2,   -0.1,   -0.1,   -0.0,    0.0,  999.0,    0.2,   -0.0,   -0.0,   -0.1,  999.0,  999.0,    5.3,    5.6,   -5.4,  999.0,   -5.5,    5.7,  999.0,   -5.4,   -5.6,    5.6,    5.5,    5.6,  999.0,  999.0,    5.4,   -5.4,    5.4,  999.0,    5.6,  999.0,    5.6,    2.7,  999.0,  999.0,    5.5,    5.5,    0.1,    5.4,  999.0,  999.0,    5.4,    5.4,  999.0,    5.4,  999.0,    5.4,  999.0,    5.4
2000/07/12 05:20,   -0.2,   -0.0,    0.3,    0.1,    0.0,   -0.0,    0.0,    0.0,   -0.0,   -0.0,   -0.0,    0.0,   -0.0,    0.1,    0.1,    0.0,    0.1,    0.0,  999.0,  999.0,    5.5,  999.0,  999.0,  999.0,    8.7,  999.0,  999.0,  999.0,  999.0,  999.0,  999.0,  999.0,  999.0,    5.9,  999.0,  999.0,    5.5,  999.0,    5.6,  999.0,    5.6,    5.6,  999.0,    5.5,    5.4,  999.0,  999.0,    5.5,  999.0,    5.5,  999.0,    5.5,  999.0,  999.0,  999.0,  999.0,  999.0,    5.7
2000/07/12 05:30,    0.2,    0.1,    0.1,    0.1,   -0.1,   -0.0,    0.0,   -0.1,   -0.1,   -0.1,   -0.1,   -0.0,   -0.1,   -0.1,    0.0,   -0.0,   -0.1,   -0.1,  999.0,  999.0,  999.0,    5.4,    5.4,  999.0,  999.0,  999.0,  999.0,  999.0,  999.0,  999.0,    5.6,  999.0,  999.0,  999.0,  999.0,    5.5,  999.0,    5.6,  999.0,  999.0,  999.0,    5.6,    5.5,  999.0,  999.0,  999.0,    5.6,  999.0,    5.7,  999.0,  999.0,  999.0,    5.5,  999.0,    5.5,  999.0,    5.5,    5.4
2000/07/12 05:40,   -1.1,   -0.2,    0.2,   -0.1,   -0.1,   -0.0,   -0.0,   -0.1,   -0.1,   -0.1,   -0.1,   -0.0,   -0.1,   -0.1,    0.1,   -0.0,   -0.1,   -0.0,  999.0,  999.0,    5.5,    5.5,    5.5,  999.0,  999.0,    5.6,  999.0,  999.0,  999.0,  999.0,  999.0,  999.0,  999.0,  999.0,    5.5,  999.0,  999.0,  999.0,  999.0,    5.4,  999.0,  999.0,  999.0,  999.0,  999.0,  999.0,    5.5,  999.0,  999.0,  999.0,  999.0,  999.0,  999.0,    5.3,    5.7,  999.0,    5.5,  999.0
2000/07/12 05:50,  999.0,    0.1,   -0.1,   -0.4,   -0.2,   -0.0,    0.3,   -0.1,   -0.0,   -0.1,   -0.0,   -0.0,   -0.1,   -0.1,    0.2,   -0.1,   -0.2,   -0.0,  999.0,  999.0,    5.4,  999.0,  999.0,  999.0,  999.0,  999.0,    5.2,  999.0,    5.6,  999.0,  999.0,  999.0,  999.0,    5.6,    5.3,  999.0,  999.0,  999.0,  999.0,    5.6,  999.0,  999.0,    5.5,    5.4,  999.0,    5.5,    5.4,    5.5,  999.0,    5.6,  999.0,    5.6,  999.0,    5.4,    5.6,  999.0,  999.0,    5.4
2000/07/12 06:00,   -0.2,   -0.1,   -0.1,   -0.2,   -0.0,   -0.1,    0.2,   -0.2,   -0.1,   -0.1,   -0.0,   -0.0,   -0.1,   -0.3,    0.1,   -0.1,  999.0,   -0.0,  999.0,  999.0,  999.0,    5.5,    5.4,  999.0,  999.0,  999.0,    5.3,  999.0,  999.0,  999.0,  999.0,  999.0,    5.5,    5.6,    5.5,    5.6,  999.0,    5.5,    5.7,    5.4,    5.7,    5.5,    5.6,  999.0,    5.4,    5.5,    5.7,  999.0,    5.4,  999.0,    5.5,    5.5,    5.5,  999.0,    5.6,    5.5,  999.0,  999.0
2000/07/12 06:10,   -0.1,   -0.1,   -0.1,   -0.0,    0.0,   -0.0,    0.0,   -0.0,   -0.1,   -0.1,   -0.1,   -0.0,   -0.1,   -0.2,    0.1,   -0.1,   -0.1,   -0.0,  999.0,  999.0,  999.0,  999.0,  999.0,  999.0,    5.7,  999.0,    5.8,    5.7,    5.5,    5.6,  999.0,  999.0,    5.5,  999.0,  999.0,  999.0,    5.5,    5.5,  999.0,    5.5,  999.0,    5.6,  999.0,    5.5,  999.0,  999.0,  999.0,    5.4,  999.0,    5.5,    5.7,  999.0,  999.0,    5.7,    6.3,    5.6,  999.0,  999.0
2000/07/12 06:20,   -0.0,   -0.1,   -0.1,   -0.1,   -0.0,   -0.1,   -0.1,   -0.1,   -0.1,   -0.1,   -0.0,   -0.0,   -0.1,    0.1,    0.0,   -0.1,   -0.1,    0.0,  999.0,  999.0,    5.5,  999.0,    5.4,    5.4,  999.0,  999.0,    5.6,    5.6,  999.0,  999.0,  999.0,    5.5,    5.5,  999.0,    5.5,  999.0,    5.6,  999.0,  999.0,    5.5,    5.5,  999.0,    5.6,  999.0,  999.0,  999.0,  999.0,    5.6,  999.0,    5.5,  999.0,    5.7,    5.5,    5.5,  999.0,  999.0,  999.0,  999.0
2000/07/12 06:30,   -0.1,   -0.1,   -0.0,   -0.0,   -0.1,   -0.0,   -0.1,   -0.0,    0.0,   -0.0,   -0.1,   -0.0,   -0.0,  999.0,    0.1,    0.1,    0.1,  999.0,  999.0,  999.0,  999.0,  999.0,  999.0,  999.0,    5.5,  999.0,    5.5,    5.4,    5.3,  999.0,    5.5,  999.0,    5.3,  999.0,    5.4,    5.3,    5.4,    5.6,    5.5,  999.0,    5.5,  999.0,  999.0,  999.0,  999.0,  999.0,  999.0,    5.6,    5.4,  999.0,  999.0,  999.0,    5.4,  999.0,    5.7,  999.0,  999.0,  999.0
2000/07/12 06:40,    0.1,   -0.1,   -0.1,   -0.1,   -0.1,   -0.0,   -0.0,    0.0,   -0.0,   -0.1,   -0.1,   -0.0,   -0.1,  999.0,    0.0,   -0.0,   -0.0,    0.0,  999.0,  999.0,    5.7,    5.6,    5.4,    5.4,    5.7,    5.5,  999.0,    5.5,    5.5,    5.5,    5.5,  999.0,  999.0,  999.0,    5.4,    5.4,  999.0,  999.0,  999.0,    5.4,  999.0,    5.5,  999.0,  999.0,    5.5,  999.0,    5.5,    5.5,  999.0,  999.0,    5.4,  999.0,  999.0,  999.0,    5.5,  999.0,    5.7,    4.9
2000/07/12 06:50,   -0.1,   -0.0,   -0.0,   -0.1,   -0.1,   -0.0,   -0.1,   -0.1,   -0.0,   -0.1,   -0.1,   -0.0,   -0.1,  999.0,    0.1,   -0.1,   -0.1,   -0.1,  999.0,  999.0,  999.0,  999.0,  999.0,  999.0,    5.4,    5.3,    5.4,  999.0,  999.0,    5.6,    5.2,  999.0,  999.0,  999.0,  999.0,  999.0,  999.0,  999.0,  999.0,    5.5,  999.0,    5.6,  999.0,  999.0,    5.5,    5.6,  999.0,    5.5,  999.0,    5.7,    5.5,  999.0,  999.0,  999.0,    5.7,  999.0,    5.4,    5.6
2000/07/12 07:00,   -0.0,   -0.0,   -0.1,   -0.1,   -0.1,   -0.1,   -0.1,   -0.0,   -0.1,   -0.1,   -0.1,   -0.0,    0.0,  999.0,    0.1,    0.0,    0.1,  999.0,  999.0,  999.0,  999.0,    5.7,    5.7,  999.0,  999.0,  999.0,    5.6,  999.0,  999.0,  999.0,  999.0,  999.0,  999.0,  999.0,    5.6,  999.0,  999.0,  999.0,  999.0,  999.0,  999.0,  999.0,  999.0,    5.5,  999.0,  999.0,  999.0,  999.0,  999.0,    5.4,    5.5,    5.6,    5.5,  999.0,    5.4,  999.0,  999.0,  999.0
2000/07/12 07:10,   -0.1,    0.1,   -0.1,   -0.1,   -0.1,   -0.1,   -0.0,   -0.0,   -0.0,   -0.1,   -0.0,   -0.0,   -0.0,    0.1,    0.0,   -0.1,  999.0,  999.0,  999.0,  999.0,    5.6,  999.0,  999.0,  999.0,    5.6,  999.0,    5.5,    5.6,  999.0,    5.5,  999.0,  999.0,  999.0,  999.0,  999.0,  999.0,  999.0,  999.0,  999.0,    5.6,  999.0,  999.0,  999.0,    5.7,  999.0,    5.5,  999.0,  999.0,  999.0,  999.0,    5.5,    5.6,  999.0,    5.6,  999.0,  999.0,    5.6,  999.0
2000/07/12 07:20,   -0.1,    0.0,   -0.1,   -0.1,   -0.1,   -0.0,    0.0,    0.0,    0.0,   -0.3,   -0.0,    0.0,    0.0,    0.1,    0.0,    0.1,  999.0,    0.2,  999.0,  999.0,    5.4,  999.0,  999.0,  999.0,  999.0,    5.8,  999.0,  999.0,  999.0,    5.2,  999.0,  999.0,    5.4,    5.6,  999.0,    5.5,  999.0,  999.0,  999.0,  999.0,    5.5,  999.0,  999.0,  999.0,  999.0,    5.5,  999.0,  999.0,  999.0,    5.5,    5.5,  999.0,  999.0,    5.5,    5.3,    5.5,  999.0,  999.0
2000/07/12 07:30,   -0.1,   -0.1,   -0.1,   -0.1,   -0.1,   -0.1,   -0.1,   -0.1,   -0.1,   -0.2,   -0.1,   -0.1,   -0.1,    0.2,   -0.0,   -0.1,   -0.2,   -0.1,  999.0,  999.0,  999.0,    6.0,  999.0,    5.4,    5.6,  999.0,  999.0,  999.0,  999.0,    5.5,    5.5,  999.0,  999.0,    5.3,  999.0,  999.0,  999.0,  999.0,  999.0,  999.0,  999.0,  999.0,    5.5,  999.0,  999.0,    5.5,  999.0,  999.0,  999.0,  999.0,  999.0,  999.0,  999.0,  999.0,  999.0,    5.5,    5.8,    5.5
2000/07/12 07:40,   -0.0,   -0.0,   -0.1,   -0.1,   -0.1,   -0.1,   -0.0,   -0.0,   -0.1,   -0.1,   -0.1,   -0.0,   -0.0,   -0.1,    0.0,   -0.0,    0.1,    0.0,  999.0,  999.0,    5.6,  999.0,   -0.1,  999.0,    5.7,  999.0,  999.0,  999.0,  999.0,  999.0,    5.5,  999.0,  999.0,  999.0,  999.0,  999.0,    5.6,    5.5,  999.0,  999.0,  999.0,    5.5,    5.5,    5.2,    5.4,  999.0,    5.5,  999.0,  999.0,  999.0,  999.0,  999.0,  999.0,    5.4,  999.0,    5.4,    5.4,  999.0
2000/07/12 07:50,   -0.0,    0.0,   -0.0,   -0.1,   -0.1,   -0.0,    0.1,   -0.1,   -0.0,   -0.1,   -0.1,    0.0,   -0.0,   -0.0,    0.0,   -0.1,    0.0,    0.1,  999.0,  999.0,  999.0,    0.1,   -0.2,   -0.4,  999.0,  999.0,    5.4,  999.0,  999.0,    5.4,  999.0,    5.4,  999.0,  999.0,    5.2,  999.0,    5.5,  999.0,  999.0,    5.4,  999.0,  999.0,  999.0,  999.0,    5.5,    5.4,    5.7,  999.0,    5.6,    4.9,    5.8,  999.0,    5.5,  999.0,  999.0,  999.0,  999.0,  999.0
2000/07/12 08:00,   -0.0,    0.0,   -0.1,   -0.1,    0.1,    0.0,   -0.1,   -0.1,   -0.1,   -0.1,   -0.2,   -0.1,   -0.1,  999.0,    0.0,   -0.0,   -0.3,   -0.0,  999.0,  999.0,  999.0,  999.0,   -0.2,  999.0,  999.0,  999.0,    4.3,  999.0,    5.5,    5.3,    5.4,  999.0,  999.0,  999.0,  999.0,    5.5,    5.6,  999.0,  999.0,    5.6,  999.0,    5.5,  999.0,  999.0,  999.0,    5.5,    5.7,    5.6,    5.5,    5.6,    5.5,  999.0,    5.4,  999.0,    5.6,  999.0,  999.0,  999.0
2000/07/12 08:10,   -0.0,   -0.1,   -0.1,   -0.1,   -0.1,   -0.1,   -0.1,   -0.1,   -0.1,   -0.2,   -0.1,   -0.0,   -0.1,    0.1,    0.1,    0.1,  999.0,    0.1,  999.0,  999.0,  999.0,  999.0,  999.0,  999.0,  999.0,  999.0,  999.0,    5.6,  999.0,  999.0,    5.7,    5.5,  999.0,    5.4,  999.0,  999.0,  999.0,  999.0,    5.6,    5.6,  999.0,  999.0,    5.3,  999.0,    5.7,  999.0,  999.0,  999.0,  999.0,  999.0,  999.0,    5.7,  999.0,  999.0,  999.0,  999.0,  999.0,  999.0
2000/07/12 08:20,   -0.1,   -0.1,   -0.0,   -0.1,   -0.1,   -0.1,   -0.1,   -0.1,   -0.1,   -0.2,   -0.1,   -0.0,   -0.1,   -0.1,    0.1,  999.0,   -0.0,    0.0,  999.0,  999.0,  999.0,  999.0,  999.0,    0.0,  999.0,  999.0,  999.0,  999.0,  999.0,    5.6,  999.0,    5.3,  999.0,    5.8,    5.5,  999.0,  999.0,  999.0,    5.6,    5.4,  999.0,  999.0,  999.0,    5.5,  999.0,  999.0,    5.6,    5.5,    5.5,    5.5,  999.0,  999.0,    5.6,  999.0,    1.5,  999.0,  999.0,  999.0
2000/07/12 08:30,   -0.0,   -0.0,   -0.0,   -0.1,   -0.0,   -0.0,   -0.1,   -0.1,   -0.0,   -0.1,   -0.1,   -0.1,   -0.1,   -0.0,    0.0,  999.0,  999.0,   -0.1,  999.0,  999.0,  999.0,  999.0,  999.0,   -0.1,  999.0,  999.0,  999.0,    5.4,    5.5,    5.3,  999.0,    5.5,  999.0,  999.0,  999.0,    5.6,    5.5,    5.4,  999.0,  999.0,    5.3,  999.0,  999.0,    5.4,  999.0,  999.0,  999.0,  999.0,  999.0,  999.0,  999.0,    5.6,  999.0,  999.0,  999.0,  999.0,  999.0,  999.0
2000/07/12 08:40,   -0.0,   -0.1,    0.0,    0.0,    0.0,    0.1,   -0.0,    0.1,   -0.1,   -0.1,   -0.1,   -0.1,   -0.0,    0.0,   -0.0,   -0.4,  999.0,   -0.1,   -0.1,  999.0,  999.0,   -5.6,  999.0,  999.0,  999.0,  999.0,  999.0,    5.5,    5.5,    5.6,    5.5,    5.4,  999.0,    5.7,  999.0,    6.1,  999.0,    5.6,  999.0,    5.5,  999.0,  999.0,    5.6,    5.5,    5.7,  999.0,    5.4,  999.0,  999.0,  999.0,  999.0,    5.4,  999.0,   -5.6,  999.0,  999.0,  999.0,   -5.6
2000/07/12 08:50,   -0.0,  999.0,   -0.1,   -0.0,    0.0,    0.1,  999.0,    0.0,   -0.0,   -0.0,   -0.0,   -0.0,    0.0,   -0.0,    0.0,   -0.0,   -0.1,   -1.9,   -0.1,    0.1,   -5.5,   -5.4,    0.1,    5.5,  999.0,    5.4,   -5.4,  999.0,  999.0,   -5.6,    5.6,   -5.4,    5.5,   -0.2,    5.5,   -5.3,   -5.6,  999.0,    1.8,  999.0,  999.0,  999.0,  999.0,    5.6,  999.0,    5.4,   -0.1,  999.0,   -5.4,   -5.4,    5.5,  999.0,  999.0,   -5.4,   -5.4,   -5.7,    5.5,  999.0
2000/07/12 09:00,   -0.2,   -0.1,    0.1,    0.1,    0.1,   -0.0,  999.0,   -0.0,   -0.0,   -0.1,   -0.1,   -0.0,    0.1,   -0.1,    0.0,   -0.2,   -0.3,  999.0,   -0.1,   -0.1,  999.0,   -0.1,   -0.1,  999.0,  999.0,    5.3,  999.0,  999.0,  999.0,  999.0,    5.6,    5.5,  999.0,    5.4,  999.0,  999.0,  999.0,  999.0,  999.0,  999.0,  999.0,  999.0,    5.7,  999.0,    5.5,    5.5,  999.0,  999.0,    5.5,  999.0,  999.0,  999.0,  999.0,    5.6,  999.0,  999.0,  999.0,  999.0
2000/07/12 09:10,   -1.1,   -0.6,    0.1,    0.1,    0.0,   -0.0,    0.2,   -0.0,   -0.1,    0.0,   -0.0,    0.0,    0.1,    0.1,    0.0,    0.0,    0.1,    5.6,    0.0,  999.0,  999.0,  999.0,    0.1,   -0.0,  999.0,    5.5,    5.5,    5.6,    5.4,    5.5,  999.0,    5.5,  999.0,    5.4,    5.4,    5.6,    4.7,  999.0,  999.0,    5.4,  999.0,  999.0,  999.0,    5.5,    5.5,    5.6,    5.5,  999.0,    5.6,    5.5,  999.0,  999.0,    5.5,  999.0,  999.0,  999.0,  999.0,  999.0
2000/07/12 09:20,  999.0,  999.0,  999.0,    0.1,   -0.0,   -0.0,   -0.1,   -0.0,   -0.1,   -0.0,   -0.1,   -0.0,   -0.0,   -0.0,    0.1,  999.0,   -0.4,   -0.7,    0.0,    0.0,  999.0,  999.0,    0.0,   -0.1,  999.0,  999.0,   -0.1,  999.0,  999.0,  999.0,  999.0,  999.0,  999.0,    5.4,    5.4,  999.0,    5.4,  999.0,  999.0,  999.0,  999.0,    5.5,    2.6,  999.0,  999.0,    5.5,    5.5,  999.0,  999.0,  999.0,    5.3,  999.0,  999.0,    4.9,    3.7,  999.0,  999.0,  999.0
2000/07/12 09:30,   -0.1,   -0.1,   -0.0,   -0.2,   -0.0,   -0.0,   -0.1,   -0.1,   -0.0,   -0.1,   -0.1,   -0.1,   -0.1,    0.1,   -0.0,   -0.2,    2.9,  999.0,    1.5,    0.1,   -0.1,  999.0,    0.0,    0.1,   -0.0,  999.0,  999.0,   -0.1,    5.4,  999.0,    5.5,  999.0,  999.0,    5.5,    5.5,    0.1,    5.5,   -5.6,  999.0,    5.6,   -0.0,    5.5,   -5.4,  999.0,   -5.6,   -5.4,  999.0,   -5.5,  999.0,  999.0,  999.0,    5.6,    5.6,  999.0,    5.5,  999.0,  999.0,  999.0
2000/07/12 09:40,   -0.8,    0.2,   -0.2,   -0.1,   -0.0,   -0.0,   -0.2,   -0.0,   -0.0,   -0.1,   -0.1,   -0.1,   -0.1,   -0.1,   -0.2,   -1.6,   -1.0,   -3.4,   -0.0,   -0.0,    3.7,    5.5,    0.1,   -0.0,    1.9,    1.8,   -5.4,   -5.6,    5.5,    5.5,    0.0,  999.0,    5.4,  999.0,    0.5,    5.6,    0.1,   -5.4,   -5.2,    0.1,    5.5,    5.6,    5.6,    5.5,  999.0,   -0.1,  999.0,    5.5,  999.0,   -0.1,  999.0,  999.0,    5.5,    5.5,    5.7,    5.4,   -5.5,   -5.6
2000/07/12 09:50,    0.1,  999.0,  999.0,    0.2,    0.0,   -0.0,   -0.0,   -0.2,   -0.1,   -0.2,   -0.1,   -0.2,   -0.1,   -0.1,    0.0,   -0.1,  999.0,    5.5,    0.7,   -0.0,  999.0,   -5.6,    2.8,   -1.6,    2.7,    5.5,   -0.5,  999.0,    5.5,   -5.4,    0.2,    1.9,  999.0,    5.5,    5.4,    5.6,    5.4,  999.0,    5.6,    5.5,   -5.6,    5.5,  999.0,    5.6,  999.0,  999.0,   -0.1,  999.0,   -4.5,    0.1,    5.5,  999.0,   -2.8,    5.6,  999.0,    5.4,   -5.5,   -5.6
2000/07/12 10:00,   -0.5,   -0.6,   -0.8,   -0.4,   -0.2,   -0.1,   -0.1,   -0.1,   -0.1,   -0.1,   -0.1,   -0.0,   -0.1,   -0.1,    0.1,  999.0,  999.0,    0.0,   -0.0,    0.0,    0.0,  999.0,   -0.2,    0.1,  999.0,   -0.0,  999.0,  999.0,    5.5,    5.4,   -0.1,  999.0,  999.0,    0.1,  999.0,  999.0,   -5.7,  999.0,   -0.0,    5.5,    5.5,    5.5,    5.5,    5.5,   -5.6,    0.0,   -5.5,   -5.5,    5.4,   -5.6,  999.0,   -5.5,    5.5,   -5.5,   -0.0,    5.6,   -5.4,  999.0
2000/07/12 10:10,    0.3,   -0.0,   -0.0,    0.1,    0.2,   -0.0,   -0.0,   -0.1,   -0.1,   -0.1,   -0.1,   -0.2,   -0.1,   -0.1,   -0.2,    0.1,   -5.5,  999.0,  999.0,    0.0,    0.1,   -0.0,    5.5,    5.5,    2.7,    5.5,    5.6,  999.0,    5.6,    0.0,    5.6,  999.0,    5.5,    5.5,   -5.5,  999.0,   -0.0,  999.0,  999.0,    5.6,    5.4,    5.5,  999.0,    5.4,    5.4,    5.5,    5.6,   -5.6,   -5.5,  999.0,  999.0,    5.4,    5.4,    5.5,    5.5,    5.6,    5.4,   -0.1
2000/07/12 10:20,    0.2,    0.6,    0.7,    0.6,    0.5,   -0.1,    0.1,  999.0,   -0.3,   -0.2,   -0.2,   -0.3,   -0.2,   -0.2,   -0.2,   -0.0,  999.0,    5.5,  999.0,    0.1,    0.1,  999.0,    5.5,    0.1,  999.0,  999.0,    5.5,    5.6,    5.6,   -5.4,    5.5,  999.0,  999.0,    1.8,  999.0,    5.1,  999.0,    5.5,    5.6,    5.4,    0.0,    5.6,    5.5,  999.0,   -5.5,   -0.1,    5.5,  999.0,   -5.6,  999.0,    5.5,    5.8,    5.4,    5.3,   -2.0,    5.6,  999.0,    5.6
2000/07/12 10:30,    0.7,    0.8,  999.0,    0.4,   -0.4,   -0.3,   -0.2,   -0.8,   -0.3,   -0.4,   -0.3,   -0.3,   -0.4,   -0.4,   -0.4,   -5.5,   -5.5,   -0.0,   -5.5,   -0.2,   -2.8,   -5.5,  999.0,    0.1,   -5.5,    5.4,   -5.5,  999.0,    5.3,    0.0,    5.6,    5.6,    2.7,    0.4,   -0.2,    0.1,    1.8,   -5.5,    5.7,    2.8,   -5.4,  999.0,    2.7,   -5.7,    5.4,    5.6,   -5.5,   -3.0,   -5.4,  999.0,    1.8,    2.7,    5.5,    0.0,    2.3,    5.5,    5.6,  999.0
2000/07/12 10:40,    0.1,   -0.5,    0.2,   -0.1,   -0.0,    0.0,   -0.0,   -0.0,   -0.1,    0.1,    0.1,   -0.0,    0.0,    0.0,    0.0,  999.0,   -1.3,    2.7,    2.6,   -0.1,   -0.1,    1.3,    0.0,  999.0,   -0.1,    5.5,    5.5,  999.0,   -5.4,    5.4,    0.0,    0.0,    5.6,    5.6,    0.0,   -5.4,   -1.8,    5.5,    5.4,    2.8,   -5.3,   -5.4,    0.0,   -5.5,    5.4,   -0.1,  999.0,  999.0,   -5.7,   -2.8,   -5.5,    0.0,  999.0,  999.0,   -5.7,   -2.7,  999.0,    5.4
2000/07/12 10:50,   -0.5,   -1.2,   -0.7,   -0.6,   -0.3,   -0.3,   -0.1,    0.1,    0.3,    0.2,    0.1,    0.1,   -0.0,   -0.1,   -0.1,    0.0,   -0.0,    3.7,   -0.1,   -1.1,    0.1,    2.7,    5.5,   -0.0,    5.4,    5.5,    2.8,  999.0,    5.5,    5.6,    0.1,    5.5,    5.6,   -5.5,    5.6,   -3.7,  999.0,    1.8,    2.8,    0.0,   -5.5,    0.0,    5.6,    1.8,   -2.7,   -5.5,    1.8,    5.4,    5.4,    5.4,    5.6,  999.0,    5.5,    5.5,    5.5,    5.5,    5.6,   -0.0
2000/07/12 11:00,   -0.4,   -0.3,   -0.6,   -0.7,   -0.4,   -0.4,   -0.1,   -0.4,   -0.4,   -0.0,    0.2,    0.2,    0.1,    0.3,    0.3,    0.3,   -2.8,   -0.1,    5.6,   -0.1,   -0.2,   -2.7,   -3.0,   -5.6,    5.5,   -5.6,    5.4,   -2.6,   -5.5,    5.6,    1.8,   -0.0,  999.0,    0.0,    3.6,   -5.5,    5.6,   -5.5,   -0.1,   -5.5,   -1.9,   -5.7,   -0.1,  999.0,   -0.0,    5.6,   -0.1,   -5.5,    0.0,   -5.5,    0.1,   -5.5,    1.8,    3.7,   -0.0,   -5.5,   -5.4,   -5.6
2000/07/12 11:10,   -0.5,   -0.8,    0.0,    0.1,   -0.4,   -0.0,    0.1,   -0.2,   -0.3,    0.2,    0.2,    0.2,    0.1,    0.1,    0.3,    0.0,    0.2,   -0.1,    5.5,    0.1,   -0.0,    0.1,    5.5,   -2.8,    0.1,   -0.1,   -0.1,    5.7,   -2.7,   -3.7,    0.0,   -0.0,  999.0,   -5.4,   -0.0,   -5.6,    5.5,    3.7,    1.8,   -1.8,   -0.0,   -5.7,   -0.1,    0.0,   -6.0,    0.1,    3.8,    1.8,   -2.8,   -5.5,    0.0,    5.5,    5.6,    0.1,   -0.0,   -2.9,    5.5,    5.6
2000/07/12 11:20,    0.3,  999.0,  999.0,    0.5,    0.8,    0.8,    0.4,    0.5,    0.5,    0.1,   -0.0,    0.1,    0.0,    0.0,    0.0,    0.1,   -0.1,   -0.1,   -0.2,   -0.1,   -0.2,   -0.2,   -0.0,    2.6,   -1.9,   -0.0,    5.5,   -1.9,    0.1,    5.5,   -5.5,    0.0,   -0.0,    5.5,    0.0,   -5.6,    0.1,    5.6,  999.0,   -0.0,    5.3,    1.8,   -0.1,   -0.0,   -0.0,   -5.5,  999.0,    5.6,   -0.1,    5.6,   -0.0,   -5.5,    1.9,    0.0,    5.6,    1.8,    5.4,    1.9
2000/07/12 11:30,  999.0,   -0.3,   -0.4,   -0.0,    0.2,    0.1,    0.1,    0.1,    0.3,    0.2,    0.1,    0.2,    0.3,    0.4,    0.2,    0.1,    0.0,    0.0,   -0.1,   -0.1,   -0.2,    1.8,    5.6,   -2.9,    5.5,    5.5,    1.8,   -5.6,   -5.5,    0.1,   -0.1,    5.5,    5.4,    5.5,   -5.6,    1.7,  999.0,   -5.5,    5.4,    5.5,  999.0,    5.5,   -5.6,    1.9,  999.0,    5.4,    5.5,    5.4,    5.5,   -0.0,  999.0,    5.4,   -5.5,    5.5,    5.5,   -0.0,    5.6,    2.7
2000/07/12 11:40,    0.0,    0.2,    0.2,   -0.3,    0.3,    0.2,   -0.1,   -0.1,   -0.5,   -0.4,   -0.5,   -0.4,   -0.4,   -0.7,   -0.7,   -0.5,   -0.4,   -0.3,   -0.1,   -0.1,   -0.2,    1.9,    5.5,    0.4,    3.7,   -5.5,   -5.5,    1.8,   -5.6,    5.5,    0.1,    0.0,    1.9,    1.9,    0.0,    2.6,    5.5,   -5.7,   -0.0,    5.5,    5.5,   -5.5,    5.5,    0.1,   -0.1,    3.7,    5.6,    3.8,    2.8,    1.8,   -5.5,    1.9,    5.5,    5.3,    5.6,   -0.1,   -1.9,    5.5
2000/07/12 11:50,   -0.0,   -4.4,    0.7,    1.0,    0.9,    0.4,    0.2,    0.1,    0.3,   -0.0,   -0.1,    0.0,   -0.2,   -0.3,   -0.4,   -0.3,    1.6,   -0.3,   -0.3,   -0.2,    0.0,    0.0,   -5.5,    3.7,    0.1,    5.6,  999.0,    5.4,   -5.5,    2.6,    5.6,    5.5,   -5.5,    0.1,   -0.0,   -1.3,    0.1,    1.8,    5.5,    5.5,    2.8,   -5.6,    5.6,    2.7,   -2.8,   -1.8,    2.8,    1.9,    5.5,    0.0,    5.4,   -0.0,    5.6,    1.9,    0.0,    5.5,    5.5,    5.5
2000/07/12 12:00,    0.0,  999.0,  999.0,  999.0,    0.3,   -0.1,   -0.5,   -0.7,   -0.7,   -0.4,   -0.3,   -0.5,   -0.3,   -0.3,   -0.5,   -1.2,    0.9,   -0.0,    0.1,    0.1,    0.2,   -1.4,   -5.6,    5.6,    5.5,   -0.0,   -5.5,   -5.5,   -0.0,   -5.4,    5.4,    0.0,    2.8,   -5.5,    0.1,    0.0,    0.1,   -5.6,    5.5,    2.7,   -0.0,    2.7,    5.4,   -0.0,   -0.0,   -5.6,    5.5,    0.0,   -2.8,   -5.5,   -5.4,   -0.0,   -5.5,  999.0,    5.5,   -0.1,    5.5,    2.8
2000/07/12 12:10,   -0.0,    0.3,   -0.1,   -0.0,    0.2,    0.2,   -0.4,    0.5,    0.8,    0.9,    0.9,    0.7,    0.6,   -0.1,   -0.3,   -0.6,    0.3,   -0.3,   -0.5,   -0.3,   -2.8,   -2.8,    3.7,   -5.6,   -0.0,    1.8,    5.5,   -1.8,   -1.8,  999.0,   -5.6,    5.6,    5.6,   -5.5,   -5.5,    1.8,   -0.1,   -5.6,   -5.5,    5.5,    5.5,    2.8,    2.7,   -0.0,    1.8,    1.8,    5.5,    1.8,    1.9,   -0.0,    0.0,    1.9,   -5.4,   -5.5,   -5.5,   -1.8,    1.8,   -0.0
2000/07/12 12:20,   -0.0,  999.0,    0.0,   -0.5,    0.7,    0.8,    0.7,   -0.1,   -0.8,    0.0,   -0.3,   -0.1,   -0.2,    0.1,    0.4,    0.3,    0.0,   -0.2,   -0.3,   -0.3,   -0.3,   -1.8,    0.1,    0.2,  999.0,   -5.5,   -5.5,   -1.8,    0.0,    5.5,   -0.0,   -1.9,    5.4,   -0.1,   -2.8,    5.5,    1.9,    5.5,   -5.5,    3.6,    2.8,   -0.1,   -3.7,   -0.0,  999.0,   -0.0,    0.0,   -0.0,   -2.8,    1.9,   -1.8,    0.0,   -3.7,   -2.8,   -0.1,   -1.9,    5.6,   -0.1
2000/07/12 12:30,    0.0,   -0.1,   -0.4,   -0.2,   -0.4,   -0.5,   -0.9,   -0.3,   -0.0,    0.0,    0.1,    0.1,    0.2,    0.2,    0.2,    0.2,    0.2,   -0.0,    0.1,    0.1,    0.1,    0.0,    2.8,    5.5,   -5.5,   -0.0,   -0.0,    5.5,    5.5,    0.0,    5.5,   -0.0,  999.0,   -1.8,   -1.4,    5.5,   -2.7,   -5.5,    0.0,    2.7,    0.1,   -3.1,   -5.5,   -5.5,   -5.5,    5.5,    2.8,    0.0,    5.3,   -5.6,    5.5,    1.8,   -5.5,   -5.5,    0.0,    5.5,    2.7,    2.7
2000/07/12 12:40,    0.4,   -0.3,   -0.5,   -0.3,   -0.5,   -0.5,   -0.4,   -0.5,   -0.5,   -0.3,   -0.3,    0.1,    0.2,    0.3,    0.3,    0.3,    0.3,    0.2,    0.1,    0.2,    0.3,    0.1,   -0.1,   -2.8,    5.6,   -5.7,    2.8,    5.5,   -0.0,   -5.6,    0.0,   -0.0,    5.5,   -5.5,    5.5,    2.7,  999.0,    5.5,   -2.8,    5.5,   -0.0,   -5.5,   -0.0,   -0.0,    5.5,    5.6,    5.5,    5.5,    5.5,    2.2,    5.5,   -0.0,    5.5,  999.0,   -5.4,    2.7,   -0.0,    5.5
2000/07/12 12:50,   -0.0,    0.1,   -0.5,   -0.6,   -0.6,   -0.6,   -0.9,   -0.5,   -0.6,   -0.2,   -0.3,   -0.2,   -0.1,   -0.1,   -0.0,   -0.1,   -0.1,   -0.1,   -0.0,   -0.1,   -0.0,    1.0,    5.6,   -0.1,  999.0,    5.4,    0.1,    5.5,   -0.2,    5.5,    5.5,    5.2,   -0.0,    0.1,   -5.5,    5.5,    5.5,    0.0,  999.0,    5.4,   -5.5,   -5.5,  999.0,   -5.5,    0.0,   -5.5,    5.6,    1.7,   -5.5,    5.5,    5.5,    5.6,    2.7,    2.8,   -5.6,    5.5,    5.5,    5.4
